Time,TemperatureF,DewpointF,PressureIn,WindDirection,WindDirectionDegrees,WindSpeedMPH,WindSpeedGustMPH,Humidity,HourlyPrecipIn,Conditions,Clouds,dailyrainin,SolarRadiationWatts/m^2,SoftwareType,DateUTC
2013-02-26 00:01:00,18.0,4.0,-100.00,SSE,166,1.0,4.0,54,0.00,,,0.07,0.000000,,2013-02-26 07:01:00,
2013-02-26 00:11:00,18.0,4.0,-100.00,SSE,166,1.0,4.0,54,0.00,,,0.07,0.000000,,2013-02-26 07:11:00,
2013-02-26 00:22:00,18.0,4.0,-100.00,SSE,166,1.0,4.0,54,0.00,,,0.07,0.000000,,2013-02-26 07:22:00,
2013-02-26 00:42:00,18.0,4.0,-100.00,NW,305,2.0,5.0,53,0.00,,,0.07,0.000000,,2013-02-26 07:42:00,
2013-02-26 00:52:00,18.0,4.0,-100.00,NW,305,2.0,5.0,53,0.00,,,0.07,0.000000,,2013-02-26 07:52:00,
2013-02-26 01:02:00,18.0,4.0,-100.00,NW,305,2.0,5.0,53,0.00,,,0.07,0.000000,,2013-02-26 08:02:00,
2013-02-26 01:11:00,18.0,4.0,-100.00,NW,305,2.0,5.0,53,0.00,,,0.07,0.000000,,2013-02-26 08:11:00,
2013-02-26 01:21:00,18.0,4.0,-100.00,NW,305,2.0,5.0,53,0.00,,,0.07,0.000000,,2013-02-26 08:21:00,
2013-02-26 01:42:00,22.0,1.0,-100.00,North,5,3.0,8.0,40,0.00,,,0.07,0.000000,,2013-02-26 08:42:00,
2013-02-26 01:52:00,22.0,1.0,-100.00,North,5,3.0,8.0,40,0.00,,,0.07,0.000000,,2013-02-26 08:52:00,
2013-02-26 02:02:00,22.0,1.0,-100.00,North,5,3.0,8.0,40,0.00,,,0.07,0.000000,,2013-02-26 09:02:00,
2013-02-26 02:11:00,22.0,1.0,-100.00,North,5,3.0,8.0,40,0.00,,,0.07,0.000000,,2013-02-26 09:11:00,
2013-02-26 02:21:00,22.0,1.0,-100.00,North,5,3.0,8.0,40,0.00,,,0.07,0.000000,,2013-02-26 09:21:00,
2013-02-26 02:43:00,18.0,3.0,-100.00,NE,37,2.0,5.0,51,0.00,,,0.07,0.000000,,2013-02-26 09:43:00,
2013-02-26 02:52:00,18.0,3.0,-100.00,NE,37,2.0,5.0,51,0.00,,,0.07,0.000000,,2013-02-26 09:52:00,
2013-02-26 03:01:00,18.0,3.0,-100.00,NE,37,2.0,5.0,51,0.00,,,0.07,0.000000,,2013-02-26 10:01:00,
2013-02-26 03:11:00,18.0,3.0,-100.00,NE,37,2.0,5.0,51,0.00,,,0.07,0.000000,,2013-02-26 10:11:00,
2013-02-26 03:21:00,18.0,3.0,-100.00,NE,37,2.0,5.0,51,0.00,,,0.07,0.000000,,2013-02-26 10:21:00,
2013-02-26 03:42:00,19.0,2.0,-100.00,West,279,2.0,9.0,46,0.00,,,0.07,0.000000,,2013-02-26 10:42:00,
2013-02-26 03:52:00,19.0,2.0,-100.00,West,279,2.0,9.0,46,0.00,,,0.07,0.000000,,2013-02-26 10:52:00,
2013-02-26 04:01:00,19.0,2.0,-100.00,West,279,2.0,9.0,46,0.00,,,0.07,0.000000,,2013-02-26 11:01:00,
2013-02-26 04:12:00,19.0,2.0,-100.00,West,279,2.0,9.0,46,0.00,,,0.07,0.000000,,2013-02-26 11:12:00,
2013-02-26 04:21:00,19.0,2.0,-100.00,West,279,2.0,9.0,46,0.00,,,0.07,0.000000,,2013-02-26 11:21:00,
2013-02-26 04:42:00,14.0,2.0,-100.00,West,277,2.0,4.0,58,0.00,,,0.07,0.000000,,2013-02-26 11:42:00,
2013-02-26 04:52:00,14.0,2.0,-100.00,West,277,2.0,4.0,58,0.00,,,0.07,0.000000,,2013-02-26 11:52:00,
2013-02-26 05:01:00,14.0,2.0,-100.00,West,277,2.0,4.0,58,0.00,,,0.07,0.000000,,2013-02-26 12:01:00,
2013-02-26 05:11:00,14.0,2.0,-100.00,West,277,2.0,4.0,58,0.00,,,0.07,0.000000,,2013-02-26 12:11:00,
2013-02-26 05:22:00,14.0,2.0,-100.00,West,277,2.0,4.0,58,0.00,,,0.07,0.000000,,2013-02-26 12:22:00,
2013-02-26 05:42:00,16.0,3.0,-100.00,WSW,254,2.0,4.0,57,0.00,,,0.07,0.000000,,2013-02-26 12:42:00,
2013-02-26 05:53:00,16.0,3.0,-100.00,WSW,254,2.0,4.0,57,0.00,,,0.07,0.000000,,2013-02-26 12:53:00,
2013-02-26 06:02:00,16.0,3.0,-100.00,WSW,254,2.0,4.0,57,0.00,,,0.07,0.000000,,2013-02-26 13:02:00,
2013-02-26 06:11:00,16.0,3.0,-100.00,WSW,254,2.0,4.0,57,0.00,,,0.07,0.000000,,2013-02-26 13:11:00,
2013-02-26 06:21:00,16.0,3.0,-100.00,WSW,254,2.0,4.0,57,0.00,,,0.07,0.000000,,2013-02-26 13:21:00,
2013-02-26 06:42:00,16.0,2.0,-100.00,South,185,2.0,5.0,54,0.00,,,0.07,0.000000,,2013-02-26 13:42:00,
2013-02-26 06:52:00,16.0,2.0,-100.00,South,185,2.0,5.0,54,0.00,,,0.07,0.000000,,2013-02-26 13:52:00,
2013-02-26 07:01:00,16.0,2.0,-100.00,South,185,2.0,5.0,54,0.00,,,0.07,0.000000,,2013-02-26 14:01:00,
2013-02-26 07:11:00,16.0,2.0,-100.00,South,185,2.0,5.0,54,0.00,,,0.07,0.000000,,2013-02-26 14:11:00,
2013-02-26 07:21:00,16.0,2.0,-100.00,South,185,2.0,5.0,54,0.00,,,0.07,0.000000,,2013-02-26 14:21:00,
2013-02-26 07:42:00,16.0,3.0,-100.00,WNW,303,1.0,7.0,57,0.00,,,0.07,21.000000,,2013-02-26 14:42:00,
2013-02-26 07:52:00,16.0,3.0,-100.00,WNW,303,1.0,7.0,57,0.00,,,0.07,21.000000,,2013-02-26 14:52:00,
2013-02-26 08:02:00,16.0,3.0,-100.00,WNW,303,1.0,7.0,57,0.00,,,0.07,21.000000,,2013-02-26 15:02:00,
2013-02-26 08:11:00,16.0,3.0,-100.00,WNW,303,1.0,7.0,57,0.00,,,0.07,21.000000,,2013-02-26 15:11:00,
2013-02-26 08:21:00,16.0,3.0,-100.00,WNW,303,1.0,7.0,57,0.00,,,0.07,21.000000,,2013-02-26 15:21:00,
2013-02-26 08:42:00,18.0,5.0,-100.00,NW,318,2.0,3.0,57,0.00,,,0.07,83.000000,,2013-02-26 15:42:00,
2013-02-26 08:52:00,18.0,5.0,-100.00,NW,318,2.0,3.0,57,0.00,,,0.07,83.000000,,2013-02-26 15:52:00,
2013-02-26 09:01:00,18.0,5.0,-100.00,NW,318,2.0,3.0,57,0.00,,,0.07,83.000000,,2013-02-26 16:01:00,
2013-02-26 09:11:00,18.0,5.0,-100.00,NW,318,2.0,3.0,57,0.00,,,0.07,83.000000,,2013-02-26 16:11:00,
2013-02-26 09:22:00,18.0,5.0,-100.00,NW,318,2.0,3.0,57,0.00,,,0.07,83.000000,,2013-02-26 16:22:00,
2013-02-26 09:42:00,28.0,10.0,-100.00,ESE,123,2.0,4.0,46,0.00,,,0.07,520.000000,,2013-02-26 16:42:00,
2013-02-26 09:52:00,28.0,10.0,-100.00,ESE,123,2.0,4.0,46,0.00,,,0.07,520.000000,,2013-02-26 16:52:00,
2013-02-26 10:01:00,28.0,10.0,-100.00,ESE,123,2.0,4.0,46,0.00,,,0.07,520.000000,,2013-02-26 17:01:00,
2013-02-26 10:11:00,28.0,10.0,-100.00,ESE,123,2.0,4.0,46,0.00,,,0.07,520.000000,,2013-02-26 17:11:00,
2013-02-26 10:21:00,28.0,10.0,-100.00,ESE,123,2.0,4.0,46,0.00,,,0.07,520.000000,,2013-02-26 17:21:00,
2013-02-26 10:42:00,25.0,9.0,-100.00,ESE,107,2.0,4.0,49,0.00,,,0.06,485.000000,,2013-02-26 17:42:00,
2013-02-26 10:52:00,25.0,9.0,-100.00,ESE,107,2.0,4.0,49,0.00,,,0.06,485.000000,,2013-02-26 17:52:00,
2013-02-26 11:01:00,25.0,9.0,-100.00,ESE,107,2.0,4.0,49,0.00,,,0.06,485.000000,,2013-02-26 18:01:00,
2013-02-26 11:12:00,25.0,9.0,-100.00,ESE,107,2.0,4.0,49,0.00,,,0.06,485.000000,,2013-02-26 18:12:00,
2013-02-26 11:21:00,25.0,9.0,-100.00,ESE,107,2.0,4.0,49,0.00,,,0.06,485.000000,,2013-02-26 18:21:00,
2013-02-26 11:42:00,24.0,14.0,-100.00,SSW,207,3.0,6.0,65,0.00,,,0.06,285.000000,,2013-02-26 18:42:00,
2013-02-26 11:52:00,24.0,14.0,-100.00,SSW,207,3.0,6.0,65,0.00,,,0.06,285.000000,,2013-02-26 18:52:00,
2013-02-26 12:01:00,24.0,14.0,-100.00,SSW,207,3.0,6.0,65,0.00,,,0.06,285.000000,,2013-02-26 19:01:00,
2013-02-26 12:11:00,24.0,14.0,-100.00,SSW,207,3.0,6.0,65,0.00,,,0.06,285.000000,,2013-02-26 19:11:00,
2013-02-26 12:22:00,24.0,14.0,-100.00,SSW,207,3.0,6.0,65,0.00,,,0.06,285.000000,,2013-02-26 19:22:00,
2013-02-26 12:42:00,24.0,14.0,-100.00,SSW,196,3.0,6.0,65,0.00,,,0.06,367.000000,,2013-02-26 19:42:00,
2013-02-26 12:52:00,24.0,14.0,-100.00,SSW,196,3.0,6.0,65,0.00,,,0.06,367.000000,,2013-02-26 19:52:00,
2013-02-26 13:01:00,24.0,14.0,-100.00,SSW,196,3.0,6.0,65,0.00,,,0.06,367.000000,,2013-02-26 20:01:00,
2013-02-26 13:11:00,24.0,14.0,-100.00,SSW,196,3.0,6.0,65,0.00,,,0.06,367.000000,,2013-02-26 20:11:00,
2013-02-26 13:21:00,24.0,14.0,-100.00,SSW,196,3.0,6.0,65,0.00,,,0.06,367.000000,,2013-02-26 20:21:00,
2013-02-26 15:42:00,27.0,0.0,-100.00,West,275,3.0,10.0,30,-99.99,,,0.00,341.000000,,2013-02-26 22:42:00,
2013-02-26 15:52:00,27.0,0.0,-100.00,West,275,3.0,10.0,30,-99.99,,,0.00,341.000000,,2013-02-26 22:52:00,
2013-02-26 16:01:00,27.0,0.0,-100.00,West,275,3.0,10.0,30,-99.99,,,0.00,341.000000,,2013-02-26 23:01:00,
2013-02-26 16:11:00,27.0,0.0,-100.00,West,275,3.0,10.0,30,-99.99,,,0.00,341.000000,,2013-02-26 23:11:00,
2013-02-26 16:21:00,27.0,0.0,-100.00,West,275,3.0,10.0,30,-99.99,,,0.00,341.000000,,2013-02-26 23:21:00,
2013-02-26 16:42:00,23.0,1.0,-100.00,NNE,27,4.0,9.0,38,0.00,,,0.00,241.000000,,2013-02-26 23:42:00,
2013-02-26 16:52:00,23.0,1.0,-100.00,NNE,27,4.0,9.0,38,0.00,,,0.00,241.000000,,2013-02-26 23:52:00,
2013-02-26 17:01:00,23.0,1.0,-100.00,NNE,27,4.0,9.0,38,0.00,,,0.00,241.000000,,2013-02-27 00:01:00,
2013-02-26 17:11:00,23.0,1.0,-100.00,NNE,27,4.0,9.0,38,0.00,,,0.00,241.000000,,2013-02-27 00:11:00,
2013-02-26 17:21:00,23.0,1.0,-100.00,NNE,27,4.0,9.0,38,0.00,,,0.00,241.000000,,2013-02-27 00:21:00,
2013-02-26 17:42:00,21.0,0.0,-100.00,East,94,2.0,9.0,39,0.00,,,0.00,96.000000,,2013-02-27 00:42:00,
2013-02-26 17:52:00,21.0,0.0,-100.00,East,94,2.0,9.0,39,0.00,,,0.00,96.000000,,2013-02-27 00:52:00,
2013-02-26 18:01:00,21.0,0.0,-100.00,East,94,2.0,9.0,39,0.00,,,0.00,96.000000,,2013-02-27 01:01:00,
2013-02-26 18:11:00,21.0,0.0,-100.00,East,94,2.0,9.0,39,0.00,,,0.00,96.000000,,2013-02-27 01:11:00,
2013-02-26 18:21:00,21.0,0.0,-100.00,East,94,2.0,9.0,39,0.00,,,0.00,96.000000,,2013-02-27 01:21:00,
2013-02-26 18:42:00,19.0,3.0,-100.00,ESE,117,3.0,5.0,49,0.00,,,0.00,10.000000,,2013-02-27 01:42:00,
2013-02-26 18:52:00,19.0,3.0,-100.00,ESE,117,3.0,5.0,49,0.00,,,0.00,10.000000,,2013-02-27 01:52:00,
2013-02-26 19:01:00,19.0,3.0,-100.00,ESE,117,3.0,5.0,49,0.00,,,0.00,10.000000,,2013-02-27 02:01:00,
2013-02-26 19:14:00,19.0,3.0,-100.00,ESE,117,3.0,5.0,49,0.00,,,0.00,10.000000,,2013-02-27 02:14:00,
2013-02-26 19:42:00,15.0,1.0,-100.00,WSW,239,1.0,4.0,54,0.00,,,0.00,0.000000,,2013-02-27 02:42:00,
2013-02-26 19:52:00,15.0,1.0,-100.00,WSW,239,1.0,4.0,54,0.00,,,0.00,0.000000,,2013-02-27 02:52:00,
2013-02-26 20:02:00,15.0,1.0,-100.00,WSW,239,1.0,4.0,54,0.00,,,0.00,0.000000,,2013-02-27 03:02:00,
2013-02-26 20:11:00,15.0,1.0,-100.00,WSW,239,1.0,4.0,54,0.00,,,0.00,0.000000,,2013-02-27 03:11:00,
2013-02-26 20:21:00,15.0,1.0,-100.00,WSW,239,1.0,4.0,54,0.00,,,0.00,0.000000,,2013-02-27 03:21:00,
2013-02-26 20:42:00,13.0,-2.0,-100.00,SW,214,1.0,4.0,50,0.00,,,0.00,0.000000,,2013-02-27 03:42:00,
2013-02-26 20:52:00,13.0,-2.0,-100.00,SW,214,1.0,4.0,50,0.00,,,0.00,0.000000,,2013-02-27 03:52:00,
2013-02-26 21:01:00,13.0,-2.0,-100.00,SW,214,1.0,4.0,50,0.00,,,0.00,0.000000,,2013-02-27 04:01:00,
2013-02-26 21:11:00,13.0,-2.0,-100.00,SW,214,1.0,4.0,50,0.00,,,0.00,0.000000,,2013-02-27 04:11:00,
2013-02-26 21:21:00,13.0,-2.0,-100.00,SW,214,1.0,4.0,50,0.00,,,0.00,0.000000,,2013-02-27 04:21:00,
2013-02-26 21:42:00,14.0,-2.0,-100.00,SE,129,2.0,4.0,47,0.00,,,0.00,0.000000,,2013-02-27 04:42:00,
2013-02-26 21:52:00,14.0,-2.0,-100.00,SE,129,2.0,4.0,47,0.00,,,0.00,0.000000,,2013-02-27 04:52:00,
2013-02-26 22:02:00,14.0,-2.0,-100.00,SE,129,2.0,4.0,47,0.00,,,0.00,0.000000,,2013-02-27 05:02:00,
2013-02-26 22:12:00,14.0,-2.0,-100.00,SE,129,2.0,4.0,47,0.00,,,0.00,0.000000,,2013-02-27 05:12:00,
2013-02-26 22:22:00,14.0,-2.0,-100.00,SE,129,2.0,4.0,47,0.00,,,0.00,0.000000,,2013-02-27 05:22:00,
2013-02-26 22:42:00,12.0,-3.0,-100.00,SW,235,2.0,3.0,50,0.00,,,0.00,0.000000,,2013-02-27 05:42:00,
2013-02-26 22:52:00,12.0,-3.0,-100.00,SW,235,2.0,3.0,50,0.00,,,0.00,0.000000,,2013-02-27 05:52:00,
2013-02-26 23:02:00,12.0,-3.0,-100.00,SW,235,2.0,3.0,50,0.00,,,0.00,0.000000,,2013-02-27 06:02:00,
2013-02-26 23:11:00,12.0,-3.0,-100.00,SW,235,2.0,3.0,50,0.00,,,0.00,0.000000,,2013-02-27 06:11:00,
2013-02-26 23:21:00,12.0,-3.0,-100.00,SW,235,2.0,3.0,50,0.00,,,0.00,0.000000,,2013-02-27 06:21:00,
2013-02-26 23:42:00,8.0,-6.0,-100.00,WNW,292,2.0,3.0,52,0.00,,,0.00,0.000000,,2013-02-27 06:42:00,
2013-02-26 23:52:00,8.0,-6.0,-100.00,WNW,292,2.0,3.0,52,0.00,,,0.00,0.000000,,2013-02-27 06:52:00,